| time (UTC) | temp C | wind direction | speed KPH | gust KPH | rain 1hr cm | rain 24hr cm | rain mn cm | humidity % | barometer mb |
| 20260504224358 | 21 | 45 | 1.6 | 8.0 | 0.00 | 0.00 | 0.00 | 82 | 1018.1 |
| 20260504223855 | 21 | 45 | 3.2 | 6.4 | 0.00 | 0.00 | 0.00 | 83 | 1018.3 |
| 20260504223352 | 20 | 11 | 3.2 | 8.0 | 0.00 | 0.00 | 0.00 | 83 | 1018.3 |
| 20260504222850 | 20 | 45 | 3.2 | 6.4 | 0.00 | 0.00 | 0.00 | 84 | 1018.6 |
| 20260504222348 | 20 | 90 | 3.2 | 6.4 | 0.00 | 0.00 | 0.00 | 85 | 1018.5 |
| 20260504221846 | 20 | 90 | 4.8 | 6.4 | 0.00 | 0.00 | 0.00 | 85 | 1018.5 |
| 20260504221344 | 20 | 90 | 3.2 | 4.8 | 0.00 | 0.00 | 0.00 | 85 | 1018.4 |
| 20260504220844 | 20 | 45 | 3.2 | 4.8 | 0.00 | 0.00 | 0.00 | 86 | 1018.4 |
| 20260504220339 | 20 | 90 | 1.6 | 6.4 | 0.00 | 0.00 | 0.00 | 86 | 1018.4 |
| 20260504215837 | 19 | 90 | 0.0 | 6.4 | 0.00 | 0.00 | 0.00 | 87 | 1018.6 |
| 20260504215335 | 18 | 135 | 1.6 | 4.8 | 0.00 | 0.00 | 0.00 | 88 | 1018.6 |
| 20260504214832 | 18 | 112 | 3.2 | 4.8 | 0.00 | 0.00 | 0.00 | 89 | 1018.5 |
| 20260504214329 | 18 | 90 | 3.2 | 3.2 | 0.00 | 0.00 | 0.00 | 89 | 1018.5 |
| 20260504213827 | 18 | 135 | 1.6 | 1.6 | 0.00 | 0.00 | 0.00 | 89 | 1018.5 |
| 20260504213325 | 17 | 135 | 1.6 | 3.2 | 0.00 | 0.00 | 0.00 | 90 | 1018.5 |
| 20260504212823 | 17 | 90 | 1.6 | 1.6 | 0.00 | 0.00 | 0.00 | 90 | 1018.3 |
| 20260504212321 | 17 | 135 | 3.2 | 3.2 | 0.00 | 0.00 | 0.00 | 90 | 1018.3 |
| 20260504211818 | 17 | 135 | 1.6 | 1.6 | 0.00 | 0.00 | 0.00 | 91 | 1018.3 |
| 20260504211316 | 17 | 135 | 1.6 | 3.2 | 0.00 | 0.00 | 0.00 | 91 | 1018.2 |
| 20260504210814 | 17 | 90 | 1.6 | 3.2 | 0.00 | 0.00 | 0.00 | 92 | 1018.3 |
| 20260504210312 | 16 | 135 | 1.6 | 1.6 | 0.00 | 0.00 | 0.00 | 92 | 1018.3 |
| 20260504205809 | 16 | 225 | 0.0 | 0.0 | 0.00 | 0.00 | 0.00 | 92 | 1018.3 |
| 20260504205308 | 16 | 180 | 0.0 | 1.6 | 0.00 | 0.00 | 0.00 | 91 | 1018.4 |
| 20260504204806 | 16 | 135 | 1.6 | 1.6 | 0.00 | 0.00 | 0.00 | 91 | 1018.3 |
| 20260504204302 | 16 | 270 | 0.0 | 0.0 | 0.00 | 0.00 | 0.00 | 90 | 1018.2 |
| 20260504203800 | 16 | 270 | 0.0 | 0.0 | 0.00 | 0.00 | 0.00 | 90 | 1018.1 |
| 20260504203258 | 16 | 270 | 0.0 | 0.0 | 0.00 | 0.00 | 0.00 | 90 | 1018.1 |
| 20260504202756 | 16 | 315 | 0.0 | 1.6 | 0.00 | 0.00 | 0.00 | 91 | 1018.1 |
| 20260504202253 | 16 | 315 | 1.6 | 1.6 | 0.00 | 0.00 | 0.00 | 91 | 1018.0 |
| 20260504201751 | 16 | 225 | 0.0 | 1.6 | 0.00 | 0.00 | 0.00 | 91 | 1017.7 |
| 20260504201249 | 15 | 191 | 1.6 | 3.2 | 0.00 | 0.00 | 0.00 | 91 | 1017.5 |
| 20260504200746 | 15 | 180 | 1.6 | 3.2 | 0.00 | 0.00 | 0.00 | 91 | 1017.3 |
| 20260504200246 | 15 | 180 | 3.2 | 4.8 | 0.00 | 0.00 | 0.00 | 91 | 1017.2 |
| 20260504195742 | 15 | 213 | 3.2 | 3.2 | 0.00 | 0.00 | 0.00 | 90 | 1017.2 |
| 20260504195239 | 15 | 180 | 3.2 | 3.2 | 0.00 | 0.00 | 0.00 | 90 | 1017.1 |
| 20260504194739 | 15 | 180 | 3.2 | 3.2 | 0.00 | 0.00 | 0.00 | 90 | 1017.0 |
| 20260504194236 | 15 | 180 | 1.6 | 3.2 | 0.00 | 0.00 | 0.00 | 90 | 1016.9 |
| 20260504193734 | 15 | 180 | 1.6 | 3.2 | 0.00 | 0.00 | 0.00 | 90 | 1016.9 |
| 20260504193231 | 16 | 180 | 1.6 | 3.2 | 0.00 | 0.00 | 0.00 | 90 | 1016.8 |
| 20260504192728 | 15 | 180 | 1.6 | 3.2 | 0.00 | 0.00 | 0.00 | 90 | 1016.9 |
| 20260504192228 | 15 | 180 | 1.6 | 3.2 | 0.00 | 0.00 | 0.00 | 90 | 1016.9 |
| 20260504191723 | 15 | 180 | 3.2 | 3.2 | 0.00 | 0.00 | 0.00 | 90 | 1016.9 |
| 20260504191222 | 15 | 180 | 4.8 | 4.8 | 0.00 | 0.00 | 0.00 | 91 | 1017.0 |
| 20260504190719 | 15 | 180 | 4.8 | 6.4 | 0.00 | 0.00 | 0.00 | 90 | 1016.8 |
| 20260504190216 | 15 | 180 | 3.2 | 4.8 | 0.00 | 0.00 | 0.00 | 91 | 1016.7 |
| 20260504185714 | 15 | 225 | 3.2 | 3.2 | 0.00 | 0.00 | 0.00 | 89 | 1016.7 |
| 20260504185212 | 15 | 180 | 3.2 | 4.8 | 0.00 | 0.00 | 0.00 | 89 | 1016.6 |
| 20260504184710 | 15 | 180 | 1.6 | 4.8 | 0.00 | 0.00 | 0.00 | 89 | 1016.6 |
| 20260504184208 | 15 | 180 | 4.8 | 6.4 | 0.00 | 0.00 | 0.00 | 89 | 1016.5 |
| 20260504183705 | 15 | 180 | 4.8 | 4.8 | 0.00 | 0.00 | 0.00 | 88 | 1016.4 |
| 20260504183203 | 15 | 180 | 1.6 | 4.8 | 0.00 | 0.00 | 0.00 | 88 | 1016.5 |
| 20260504182701 | 15 | 180 | 3.2 | 3.2 | 0.00 | 0.00 | 0.00 | 88 | 1016.4 |
| 20260504182158 | 15 | 180 | 3.2 | 4.8 | 0.00 | 0.00 | 0.00 | 88 | 1016.4 |
| 20260504181656 | 15 | 180 | 4.8 | 6.4 | 0.00 | 0.00 | 0.00 | 88 | 1016.5 |
| 20260504181153 | 15 | 180 | 4.8 | 4.8 | 0.00 | 0.00 | 0.00 | 87 | 1016.5 |
| 20260504180651 | 16 | 135 | 3.2 | 3.2 | 0.00 | 0.00 | 0.00 | 86 | 1016.5 |
| 20260504180149 | 16 | 180 | 0.0 | 1.6 | 0.00 | 0.00 | 0.00 | 86 | 1016.5 |
| 20260504175647 | 16 | 180 | 0.0 | 1.6 | 0.00 | 0.00 | 0.00 | 86 | 1016.5 |
| 20260504175145 | 16 | 180 | 0.0 | 0.0 | 0.00 | 0.00 | 0.00 | 86 | 1016.4 |
| 20260504174643 | 16 | 202 | 0.0 | 0.0 | 0.00 | 0.00 | 0.00 | 86 | 1016.5 |
| 20260504174140 | 16 | 0 | 0.0 | 1.6 | 0.00 | 0.00 | 0.00 | 86 | 1016.7 |
| 20260504173638 | 16 | 225 | 0.0 | 1.6 | 0.00 | 0.00 | 0.00 | 86 | 1016.6 |
| 20260504173135 | 16 | 202 | 1.6 | 3.2 | 0.00 | 0.00 | 0.00 | 86 | 1016.7 |
| 20260504172633 | 16 | 180 | 1.6 | 3.2 | 0.00 | 0.00 | 0.00 | 86 | 1016.8 |
| 20260504172131 | 16 | 168 | 3.2 | 3.2 | 0.00 | 0.00 | 0.00 | 85 | 1016.7 |
| 20260504171628 | 16 | 135 | 1.6 | 1.6 | 0.00 | 0.00 | 0.00 | 85 | 1016.6 |
| 20260504171126 | 16 | 180 | 0.0 | 1.6 | 0.00 | 0.00 | 0.00 | 85 | 1016.6 |
| 20260504170624 | 16 | 135 | 1.6 | 1.6 | 0.00 | 0.00 | 0.00 | 85 | 1016.6 |
| 20260504170122 | 16 | 180 | 0.0 | 0.0 | 0.00 | 0.00 | 0.00 | 85 | 1016.5 |
| 20260504151032 | 16 | 135 | 1.6 | 1.6 | 0.00 | 0.00 | 0.00 | 81 | 1016.8 |
| 20260504150529 | 16 | 168 | 0.0 | 0.0 | 0.00 | 0.00 | 0.00 | 80 | 1016.8 |
| 20260504141003 | 16 | 135 | 1.6 | 1.6 | 0.00 | 0.00 | 0.00 | 78 | 1017.0 |
| 20260504140501 | 16 | 180 | 1.6 | 1.6 | 0.00 | 0.00 | 0.00 | 77 | 1017.0 |
| 20260504130434 | 17 | 315 | 0.0 | 0.0 | 0.00 | 0.00 | 0.00 | 72 | 1017.1 |
| 20260504110339 | 19 | 202 | 3.2 | 4.8 | 0.00 | 0.00 | 0.00 | 68 | 1017.2 |
| 20260504100444 | 20 | 270 | 0.0 | 0.0 | 0.00 | 0.00 | 0.00 | 62 | 1016.4 |
| 20260504081853 | 24 | 270 | 0.0 | 0.0 | 0.00 | 0.00 | 0.00 | 49 | 1015.1 |
| 20260504081351 | 25 | 270 | 0.0 | 0.0 | 0.00 | 0.00 | 0.00 | 48 | 1015.0 |
| 20260504080849 | 25 | 270 | 0.0 | 0.0 | 0.00 | 0.00 | 0.00 | 48 | 1015.0 |
| 20260504080347 | 25 | 270 | 0.0 | 0.0 | 0.00 | 0.00 | 0.00 | 48 | 1015.0 |
| 20260504070320 | 28 | 0 | 0.0 | 1.6 | 0.00 | 0.00 | 0.00 | 41 | 1014.1 |
| 20260504050730 | 30 | 45 | 6.4 | 12.9 | 0.00 | 0.00 | 0.00 | 39 | 1013.6 |
| 20260504045723 | 29 | 22 | 1.6 | 3.2 | 0.00 | 0.00 | 0.00 | 41 | 1013.8 |
| 20260504045221 | 29 | 90 | 3.2 | 8.0 | 0.00 | 0.00 | 0.00 | 41 | 1013.8 |
| 20260504044718 | 29 | 45 | 3.2 | 8.0 | 0.00 | 0.00 | 0.00 | 41 | 1013.8 |
| 20260504044216 | 29 | 45 | 8.0 | 14.5 | 0.00 | 0.00 | 0.00 | 40 | 1013.8 |
| 20260504043714 | 29 | 90 | 3.2 | 11.3 | 0.00 | 0.00 | 0.00 | 41 | 1013.9 |
| 20260504043212 | 29 | 168 | 4.8 | 14.5 | 0.00 | 0.00 | 0.00 | 40 | 1013.9 |
| 20260504042710 | 29 | 112 | 9.7 | 14.5 | 0.00 | 0.00 | 0.00 | 41 | 1014.1 |
| 20260504042208 | 29 | 90 | 8.0 | 11.3 | 0.00 | 0.00 | 0.00 | 40 | 1013.9 |
| 20260504041705 | 29 | 202 | 1.6 | 6.4 | 0.00 | 0.00 | 0.00 | 43 | 1014.1 |
| 20260504041205 | 28 | 135 | 4.8 | 9.7 | 0.00 | 0.00 | 0.00 | 42 | 1014.1 |
| 20260504040700 | 28 | 0 | 1.6 | 9.7 | 0.00 | 0.00 | 0.00 | 43 | 1014.1 |
| 20260504040158 | 29 | 45 | 0.0 | 12.9 | 0.00 | 0.00 | 0.00 | 43 | 1014.3 |
| 20260504035656 | 28 | 45 | 3.2 | 14.5 | 0.00 | 0.00 | 0.00 | 42 | 1014.3 |
| 20260504035154 | 28 | 45 | 8.0 | 8.0 | 0.00 | 0.00 | 0.00 | 44 | 1014.3 |
| 20260504034653 | 28 | 315 | 3.2 | 4.8 | 0.00 | 0.00 | 0.00 | 45 | 1014.4 |
| 20260504034151 | 28 | 11 | 6.4 | 8.0 | 0.00 | 0.00 | 0.00 | 43 | 1014.4 |
| 20260504033648 | 28 | 56 | 8.0 | 12.9 | 0.00 | 0.00 | 0.00 | 45 | 1014.7 |
| 20260504033145 | 28 | 0 | 6.4 | 14.5 | 0.00 | 0.00 | 0.00 | 44 | 1014.6 |
| 20260504032643 | 28 | 101 | 1.6 | 11.3 | 0.00 | 0.00 | 0.00 | 44 | 1014.5 |
| 20260504032140 | 28 | 157 | 4.8 | 9.7 | 0.00 | 0.00 | 0.00 | 47 | 1014.6 |
| 20260504031638 | 28 | 0 | 0.0 | 4.8 | 0.00 | 0.00 | 0.00 | 47 | 1014.8 |
| 20260504031135 | 28 | 292 | 3.2 | 6.4 | 0.00 | 0.00 | 0.00 | 48 | 1014.9 |
| 20260504030633 | 28 | 225 | 6.4 | 9.7 | 0.00 | 0.00 | 0.00 | 48 | 1015.0 |
| 20260504030130 | 28 | 90 | 6.4 | 14.5 | 0.00 | 0.00 | 0.00 | 46 | 1015.0 |
| 20260504025628 | 28 | 135 | 9.7 | 14.5 | 0.00 | 0.00 | 0.00 | 48 | 1015.2 |
| 20260504025126 | 28 | 135 | 9.7 | 12.9 | 0.00 | 0.00 | 0.00 | 47 | 1015.2 |
| 20260504024624 | 28 | 90 | 9.7 | 14.5 | 0.00 | 0.00 | 0.00 | 46 | 1015.2 |
| 20260504024122 | 28 | 0 | 6.4 | 14.5 | 0.00 | 0.00 | 0.00 | 47 | 1015.4 |
| 20260504023621 | 28 | 90 | 12.9 | 12.9 | 0.00 | 0.00 | 0.00 | 46 | 1015.4 |
| 20260504023117 | 28 | 45 | 6.4 | 9.7 | 0.00 | 0.00 | 0.00 | 48 | 1015.6 |
| 20260504022614 | 27 | 270 | 3.2 | 8.0 | 0.00 | 0.00 | 0.00 | 52 | 1015.8 |
| 20260504022112 | 27 | 22 | 3.2 | 4.8 | 0.00 | 0.00 | 0.00 | 52 | 1015.9 |
| 20260504021611 | 27 | 168 | 6.4 | 8.0 | 0.00 | 0.00 | 0.00 | 53 | 1016.2 |
| 20260504021106 | 27 | 292 | 0.0 | 4.8 | 0.00 | 0.00 | 0.00 | 53 | 1016.3 |
| 20260504020605 | 27 | 45 | 1.6 | 11.3 | 0.00 | 0.00 | 0.00 | 53 | 1016.4 |
| 20260504020103 | 27 | 315 | 9.7 | 11.3 | 0.00 | 0.00 | 0.00 | 53 | 1016.5 |
| 20260504015603 | 26 | 22 | 3.2 | 9.7 | 0.00 | 0.00 | 0.00 | 52 | 1016.5 |
| 20260504015059 | 26 | 315 | 6.4 | 11.3 | 0.00 | 0.00 | 0.00 | 53 | 1016.6 |
| 20260504014557 | 26 | 22 | 11.3 | 12.9 | 0.00 | 0.00 | 0.00 | 53 | 1016.7 |
| 20260504014055 | 27 | 45 | 9.7 | 12.9 | 0.00 | 0.00 | 0.00 | 53 | 1016.8 |
| 20260504013551 | 26 | 135 | 11.3 | 16.1 | 0.00 | 0.00 | 0.00 | 53 | 1016.9 |
| 20260504013048 | 26 | 90 | 4.8 | 14.5 | 0.00 | 0.00 | 0.00 | 53 | 1016.9 |
| 20260504012546 | 26 | 90 | 14.5 | 14.5 | 0.00 | 0.00 | 0.00 | 51 | 1016.8 |
| 20260504012043 | 26 | 112 | 6.4 | 9.7 | 0.00 | 0.00 | 0.00 | 52 | 1017.0 |
| 20260504011541 | 26 | 135 | 0.0 | 11.3 | 0.00 | 0.00 | 0.00 | 55 | 1017.4 |
| 20260504011040 | 26 | 135 | 9.7 | 14.5 | 0.00 | 0.00 | 0.00 | 52 | 1017.3 |
| 20260504010537 | 26 | 101 | 14.5 | 17.7 | 0.00 | 0.00 | 0.00 | 51 | 1017.1 |
| 20260504010035 | 25 | 0 | 8.0 | 12.9 | 0.00 | 0.00 | 0.00 | 58 | 1017.5 |
| 20260504005532 | 25 | 67 | 4.8 | 11.3 | 0.00 | 0.00 | 0.00 | 56 | 1017.5 |
| 20260504005030 | 25 | 112 | 9.7 | 16.1 | 0.00 | 0.00 | 0.00 | 55 | 1017.5 |
| 20260504004527 | 25 | 45 | 9.7 | 9.7 | 0.00 | 0.00 | 0.00 | 59 | 1017.8 |
| 20260504004026 | 25 | 45 | 9.7 | 11.3 | 0.00 | 0.00 | 0.00 | 58 | 1017.8 |
| 20260504003524 | 25 | 45 | 4.8 | 9.7 | 0.00 | 0.00 | 0.00 | 61 | 1018.0 |
| 20260504003023 | 25 | 90 | 11.3 | 14.5 | 0.00 | 0.00 | 0.00 | 58 | 1017.9 |
| 20260504002521 | 25 | 67 | 6.4 | 8.0 | 0.00 | 0.00 | 0.00 | 65 | 1018.2 |
| 20260504002016 | 25 | 67 | 11.3 | 11.3 | 0.00 | 0.00 | 0.00 | 64 | 1018.3 |
| 20260504001514 | 24 | 22 | 11.3 | 12.9 | 0.00 | 0.00 | 0.00 | 65 | 1018.3 |
| 20260504001013 | 24 | 135 | 3.2 | 6.4 | 0.00 | 0.00 | 0.00 | 68 | 1018.4 |
| 20260504000510 | 24 | 45 | 9.7 | 12.9 | 0.00 | 0.00 | 0.00 | 67 | 1018.5 |
| 20260504000007 | 23 | 45 | 11.3 | 14.5 | 0.00 | 0.00 | 0.00 | 69 | 1018.6 |
| 20260503235504 | 23 | 33 | 6.4 | 12.9 | 0.00 | 0.00 | 0.00 | 67 | 1018.5 |
| 20260503235002 | 23 | 90 | 1.6 | 11.3 | 0.00 | 0.00 | 0.00 | 71 | 1018.6 |
| 20260503234501 | 23 | 45 | 4.8 | 9.7 | 0.00 | 0.00 | 0.00 | 71 | 1018.6 |
| 20260503233958 | 23 | 90 | 9.7 | 9.7 | 0.00 | 0.00 | 0.00 | 73 | 1018.6 |
| 20260503233455 | 22 | 135 | 3.2 | 11.3 | 0.00 | 0.00 | 0.00 | 78 | 1018.8 |
| 20260503232953 | 22 | 67 | 9.7 | 11.3 | 0.00 | 0.00 | 0.00 | 78 | 1018.8 |
| 20260503232452 | 22 | 45 | 8.0 | 11.3 | 0.00 | 0.00 | 0.00 | 84 | 1019.1 |
| 20260503231949 | 21 | 101 | 6.4 | 12.9 | 0.00 | 0.00 | 0.00 | 84 | 1019.2 |
| 20260503231447 | 21 | 67 | 6.4 | 14.5 | 0.00 | 0.00 | 0.00 | 85 | 1019.1 |
| 20260503230944 | 21 | 90 | 4.8 | 9.7 | 0.00 | 0.00 | 0.00 | 87 | 1019.3 |
| 20260503230443 | 21 | 45 | 8.0 | 12.9 | 0.00 | 0.00 | 0.00 | 86 | 1019.0 |
| 20260503225939 | 21 | 315 | 8.0 | 12.9 | 0.00 | 0.00 | 0.00 | 89 | 1019.1 |
| 20260503225437 | 20 | 90 | 6.4 | 9.7 | 0.00 | 0.00 | 0.00 | 92 | 1019.2 |
| 20260503224936 | 20 | 315 | 6.4 | 11.3 | 0.00 | 0.00 | 0.00 | 92 | 1019.1 |